When you browse on this site, cookies collect data to enhance your experience and personalize the content and advertising you see.
Visit our Privacy Policy to learn more. By continuing to use the site, you agree to this use of cookies and data.
  • In Österreich
  • Länderverzeichnis
  • Für 7 Tage
  • Wassertemperatur
  • Wetterkarte
  • News
  • Widgets
  • user-avatar
    Anmelden

    Stündliche Wetter Pamporowo

    Heute, 15 Oktober, Dienstag

    Zeit Temperatur Niederschläge Wind Luftdruck Luftfeuchtigkeit
    00:00 +9°C° 0 mm 1 m/S 628 mmHg 51%
    01:00 +8°C° 0 mm 1 m/S 627 mmHg 50%
    02:00 +8°C° 0 mm 1 m/S 627 mmHg 49%
    03:00 +8°C° 0 mm 1 m/S 627 mmHg 47%
    04:00 +8°C° 0 mm 1 m/S 627 mmHg 44%
    05:00 +8°C° 0 mm 1 m/S 626 mmHg 42%
    06:00 +9°C° 0 mm 1 m/S 627 mmHg 41%
    07:00 +10°C° 0 mm 1 m/S 628 mmHg 39%
    08:00 +12°C° 0 mm 1 m/S 629 mmHg 37%
    09:00 +14°C° 0 mm 1 m/S 629 mmHg 33%
    10:00 +18°C° 0 mm 1 m/S 630 mmHg 28%
    11:00 +20°C° 0 mm 1 m/S 631 mmHg 23%
    12:00 +20°C° 0 mm 1 m/S 631 mmHg 23%
    13:00 +21°C° 0 mm 1 m/S 631 mmHg 23%
    14:00 +20°C° 0 mm 2 m/S 631 mmHg 23%
    15:00 +19°C° 0 mm 1 m/S 630 mmHg 31%
    16:00 +16°C° 0 mm 1 m/S 628 mmHg 38%
    17:00 +14°C° 0 mm 0 m/S 627 mmHg 45%
    18:00 +13°C° 0 mm 1 m/S 627 mmHg 48%
    19:00 +11°C° 0 mm 1 m/S 626 mmHg 50%
    20:00 +10°C° 0 mm 1 m/S 626 mmHg 53%
    21:00 +9°C° 0 mm 1 m/S 626 mmHg 53%
    22:00 +9°C° 0 mm 1 m/S 626 mmHg 52%
    23:00 +9°C° 0 mm 1 m/S 626 mmHg 52%

    Morgen, 16 Oktober, Mittwoch

    Zeit Temperatur Niederschläge Wind Luftdruck Luftfeuchtigkeit
    00:00 +9°C° 0 mm 1 m/S 626 mmHg 51%
    01:00 +9°C° 0 mm 1 m/S 626 mmHg 50%
    02:00 +8°C° 0 mm 1 m/S 626 mmHg 49%
    03:00 +8°C° 0 mm 1 m/S 625 mmHg 47%
    04:00 +8°C° 0 mm 1 m/S 625 mmHg 45%
    05:00 +8°C° 0 mm 1 m/S 625 mmHg 43%
    06:00 +9°C° 0 mm 1 m/S 626 mmHg 42%
    07:00 +10°C° 0 mm 1 m/S 626 mmHg 41%
    08:00 +12°C° 0 mm 1 m/S 627 mmHg 40%
    09:00 +14°C° 0 mm 1 m/S 628 mmHg 35%
    10:00 +16°C° 0 mm 1 m/S 629 mmHg 31%
    11:00 +20°C° 0 mm 1 m/S 630 mmHg 26%
    12:00 +20°C° 0 mm 1 m/S 630 mmHg 26%
    13:00 +20°C° 0 mm 1 m/S 630 mmHg 26%
    14:00 +20°C° 0 mm 2 m/S 629 mmHg 26%
    15:00 +19°C° 0 mm 1 m/S 628 mmHg 33%
    16:00 +16°C° 0 mm 1 m/S 628 mmHg 40%
    17:00 +14°C° 0 mm 1 m/S 627 mmHg 47%
    18:00 +13°C° 0 mm 1 m/S 626 mmHg 50%
    19:00 +11°C° 0 mm 1 m/S 626 mmHg 54%
    20:00 +10°C° 0 mm 1 m/S 626 mmHg 57%
    21:00 +9°C° 0 mm 1 m/S 626 mmHg 58%
    22:00 +9°C° 0 mm 1 m/S 626 mmHg 59%
    23:00 +9°C° 0 mm 1 m/S 626 mmHg 59%

    übermorgen, 17 Oktober, Donnerstag

    Zeit Temperatur Niederschläge Wind Luftdruck Luftfeuchtigkeit
    00:00 +9°C° 0 mm 1 m/S 626 mmHg 59%
    01:00 +8°C° 0 mm 1 m/S 626 mmHg 59%
    02:00 +8°C° 0 mm 1 m/S 626 mmHg 60%
    03:00 +8°C° 0 mm 1 m/S 626 mmHg 59%
    04:00 +8°C° 0 mm 1 m/S 626 mmHg 58%
    05:00 +8°C° 0 mm 1 m/S 626 mmHg 57%
    06:00 +9°C° 0 mm 1 m/S 626 mmHg 54%
    07:00 +10°C° 0 mm 1 m/S 627 mmHg 51%
    08:00 +11°C° 0 mm 0 m/S 627 mmHg 48%
    09:00 +14°C° 0 mm 1 m/S 628 mmHg 42%
    10:00 +16°C° 0 mm 1 m/S 629 mmHg 36%
    11:00 +19°C° 0 mm 1 m/S 630 mmHg 30%
    12:00 +20°C° 0 mm 1 m/S 630 mmHg 30%
    13:00 +20°C° 0 mm 1 m/S 630 mmHg 30%
    14:00 +19°C° 0 mm 2 m/S 630 mmHg 30%
    15:00 +19°C° 0 mm 1 m/S 629 mmHg 37%
    16:00 +16°C° 0 mm 1 m/S 628 mmHg 43%
    17:00 +14°C° 0 mm 1 m/S 628 mmHg 50%
    18:00 +13°C° 0 mm 1 m/S 627 mmHg 53%
    19:00 +11°C° 0 mm 1 m/S 627 mmHg 57%
    20:00 +10°C° 0 mm 1 m/S 626 mmHg 61%
    21:00 +10°C° 0 mm 1 m/S 626 mmHg 61%
    22:00 +9°C° 0 mm 1 m/S 627 mmHg 62%
    23:00 +9°C° 0 mm 1 m/S 627 mmHg 63%

    18 Oktober, Freitag

    Zeit Temperatur Niederschläge Wind Luftdruck Luftfeuchtigkeit
    00:00 +9°C° 0 mm 1 m/S 627 mmHg 63%
    01:00 +9°C° 0 mm 1 m/S 626 mmHg 63%
    02:00 +9°C° 0 mm 1 m/S 626 mmHg 63%
    03:00 +8°C° 0 mm 1 m/S 626 mmHg 63%
    04:00 +8°C° 0 mm 1 m/S 626 mmHg 62%
    05:00 +8°C° 0 mm 1 m/S 626 mmHg 62%
    06:00 +9°C° 0 mm 1 m/S 627 mmHg 58%
    07:00 +10°C° 0 mm 1 m/S 627 mmHg 55%
    08:00 +10°C° 0 mm 0 m/S 628 mmHg 51%
    09:00 +14°C° 0 mm 1 m/S 629 mmHg 45%
    10:00 +16°C° 0 mm 1 m/S 630 mmHg 38%
    11:00 +19°C° 0 mm 1 m/S 631 mmHg 32%
    12:00 +19°C° 0 mm 1 m/S 630 mmHg 32%
    13:00 +18°C° 0 mm 2 m/S 630 mmHg 32%
    14:00 +18°C° 0 mm 2 m/S 630 mmHg 32%
    15:00 +18°C° 0 mm 1 m/S 629 mmHg 38%
    16:00 +15°C° 0 mm 1 m/S 629 mmHg 45%
    17:00 +14°C° 0 mm 1 m/S 628 mmHg 52%
    18:00 +12°C° 0 mm 1 m/S 627 mmHg 55%
    19:00 +11°C° 0 mm 1 m/S 627 mmHg 59%
    20:00 +9°C° 0 mm 1 m/S 627 mmHg 63%
    21:00 +9°C° 0 mm 1 m/S 627 mmHg 63%
    22:00 +9°C° 0 mm 1 m/S 627 mmHg 63%
    23:00 +9°C° 0 mm 1 m/S 627 mmHg 63%

    19 Oktober, Samstag

    Zeit Temperatur Niederschläge Wind Luftdruck Luftfeuchtigkeit
    00:00 +8°C° 0 mm 1 m/S 626 mmHg 62%
    01:00 +8°C° 0 mm 1 m/S 626 mmHg 62%
    02:00 +8°C° 0 mm 1 m/S 626 mmHg 61%
    03:00 +8°C° 0 mm 1 m/S 626 mmHg 60%
    04:00 +8°C° 0 mm 1 m/S 626 mmHg 59%
    05:00 +8°C° 0 mm 1 m/S 626 mmHg 58%
    06:00 +9°C° 0 mm 1 m/S 627 mmHg 55%
    07:00 +10°C° 0 mm 1 m/S 627 mmHg 52%
    08:00 +10°C° 0 mm 0 m/S 628 mmHg 50%
    09:00 +13°C° 0 mm 1 m/S 629 mmHg 44%
    10:00 +15°C° 0 mm 1 m/S 630 mmHg 39%
    11:00 +18°C° 0 mm 1 m/S 631 mmHg 34%
    12:00 +18°C° 0 mm 1 m/S 631 mmHg 33%
    13:00 +18°C° 0 mm 2 m/S 630 mmHg 33%
    14:00 +18°C° 0 mm 2 m/S 630 mmHg 32%
    15:00 +16°C° 0 mm 1 m/S 629 mmHg 38%
    16:00 +15°C° 0 mm 1 m/S 629 mmHg 44%
    17:00 +13°C° 0 mm 1 m/S 628 mmHg 50%
    18:00 +12°C° 0 mm 1 m/S 628 mmHg 53%
    19:00 +10°C° 0 mm 1 m/S 627 mmHg 57%
    20:00 +9°C° 0 mm 1 m/S 627 mmHg 60%
    21:00 +9°C° 0 mm 1 m/S 627 mmHg 61%
    22:00 +8°C° 0 mm 1 m/S 627 mmHg 62%
    23:00 +8°C° 0 mm 1 m/S 627 mmHg 63%

    20 Oktober, Sonntag

    Zeit Temperatur Niederschläge Wind Luftdruck Luftfeuchtigkeit
    00:00 +8°C° 0 mm 1 m/S 627 mmHg 63%
    01:00 +8°C° 0 mm 1 m/S 627 mmHg 64%
    02:00 +7°C° 0 mm 1 m/S 627 mmHg 64%
    03:00 +7°C° 0 mm 1 m/S 626 mmHg 64%
    04:00 +7°C° 0 mm 1 m/S 626 mmHg 63%
    05:00 +7°C° 0 mm 1 m/S 626 mmHg 63%
    06:00 +8°C° 0 mm 1 m/S 627 mmHg 59%
    07:00 +8°C° 0 mm 0 m/S 628 mmHg 56%
    08:00 +10°C° 0 mm 0 m/S 628 mmHg 52%
    09:00 +13°C° 0 mm 1 m/S 629 mmHg 46%
    10:00 +15°C° 0 mm 1 m/S 630 mmHg 40%
    11:00 +18°C° 0 mm 1 m/S 631 mmHg 33%
    12:00 +18°C° 0 mm 1 m/S 631 mmHg 33%
    13:00 +17°C° 0 mm 2 m/S 630 mmHg 33%
    14:00 +18°C° 0 mm 2 m/S 630 mmHg 33%
    15:00 +16°C° 0 mm 2 m/S 630 mmHg 40%
    16:00 +15°C° 0 mm 1 m/S 629 mmHg 46%
    17:00 +13°C° 0 mm 1 m/S 628 mmHg 52%
    18:00 +12°C° 0 mm 1 m/S 628 mmHg 56%
    19:00 +10°C° 0 mm 1 m/S 627 mmHg 60%
    20:00 +9°C° 0 mm 1 m/S 627 mmHg 64%
    21:00 +9°C° 0 mm 1 m/S 627 mmHg 65%
    22:00 +8°C° 0 mm 1 m/S 627 mmHg 65%
    23:00 +8°C° 0 mm 1 m/S 628 mmHg 66%
    Mehr zeigen